Location: Newark
(45.2500°N, 7.5833°E)
Time: 03:51:40
(UTC+00:00)

Tiros 1 despin weight - Pass Details

Date: 03 February 2020
Orbit: 594 x 642 km, 48.2° (Epoch: 16 February)

Event Time Altitude Azimuth Distance (km) Brightness Sun altitude
Rises 10:24:58 0° 279° (W) 2,853 ? 25.6°
Reaches altitude 10° 10:27:17 10° 284° (WNW) 1,957 ? 25.8°
Maximum altitude 10:31:44 59° 4° (N) 708 ? 26.0°
Drops below altitude 10° 10:36:15 10° 85° (E) 1,986 ? 26.3°
Sets 10:38:36 0° 89° (E) 2,900 ? 26.4°
